Regional Weather Roundup
Issued by NWS Sioux Falls, SD

Home | Current Version | Previous Version | Text Only | Print | Product List | Glossary Off
Versions: 1 2 3 4 5 6 7 8 9 10 11 12 13 14 15 16 17 18 19 20 21 22 23 24 25 26 27 28 29 30 31 32 33 34 35 36 37 38 39 40 41 42 43 44 45 46 47 48 49 50

000
ASUS43 KFSD 262310
RWRFSD

WEATHER ROUNDUP FOR SE SOUTH DAKOTA/SW MINNESOTA/NW IOWA
NATIONAL WEATHER SERVICE SIOUX FALLS SD
600 PM CDT SUN MAR 26 2017

NOTE: "FAIR" INDICATES FEW OR NO CLOUDS BELOW 12,000 FEET WITH NO
SIGNIFICANT WEATHER AND OR OBSTRUCTIONS TO VISIBILITY.


SDZ038>040-050-052>070-270000-
SOUTHEAST SOUTH DAKOTA

CITY           SKY/WX    TMP DP  RH WIND       PRES   REMARKS
CHAMBERLAIN    CLOUDY    48  41  76 NW5       29.93S
HURON          CLOUDY    49  38  65 N3        29.93S
MADISON        CLOUDY    45  45 100 N8        29.92S
MITCHELL       CLOUDY    49  39  68 N6        29.93F
SIOUX FALLS    CLOUDY    48  39  71 N7        29.92S
WINNER         MOCLDY    49  39  68 NE3       29.92R
YANKTON        CLOUDY    48  39  71 N7        29.91S
$$

MNZ071-072-080-081-089-090-097-098-270000-
SOUTHWEST MINNESOTA

CITY           SKY/WX    TMP DP  RH WIND       PRES   REMARKS
FAIRMONT       CLOUDY    41  38  89 N10       29.92S
JACKSON        CLOUDY    43  37  81 VRB7      29.91S
LUVERNE        CLOUDY    43  36  75 N8        29.92S
MARSHALL       CLOUDY    43  38  82 NW8       29.94R
MONTEVIDEO     CLOUDY    46  39  76 N7        29.95S
PIPESTONE      CLOUDY    43  36  75 N7        29.91S
REDWOOD FALLS  CLOUDY    46  36  68 NW6       29.93R
TRACY          CLOUDY    43  39  86 N6        29.93R
WINDOM         MOSUNNY   43  37  81 NW10      29.91F
WORTHINGTON    CLOUDY    41  38  89 N12       29.92R
$$

IAZ001>003-012>014-020>022-031-032-NEZ013-014-SDZ071-270000-
NORTHWEST IOWA

CITY           SKY/WX    TMP DP  RH WIND       PRES   REMARKS
CHEROKEE       CLOUDY    46  41  82 N8        29.91R
ESTHERVILLE    CLOUDY    42  39  89 NW12      29.91S
LE MARS        CLOUDY    48  41  76 N8        29.92F
ORANGE CITY    CLOUDY    46  43  87 NE9       29.91S
SHELDON        CLOUDY    45  45 100 N12       29.90S
SIOUX CITY     CLOUDY    47  40  76 N10       29.90F
SPENCER        CLOUDY    44  39  82 N10       29.91S
STORM LAKE       N/A     45  41  87 N8        29.91R
$$

ABBREVIATIONS USED IN REMARKS
   TC - TEMPERATURE IN CELSIUS
  WCI - WIND CHILL INDEX
   HX - HEAT INDEX
  VSB - VISIBILITY





USA.gov is the U.S. government's official web portal to all federal, state and local government web resources and services.